Flag for Germany Weather past 2 weeks in Wiehl, North Rhine-Westphalia, Germany

Now
57 °F

Clear.


Feels Like: 55 °F
Forecast: 42 / 58 °F
Wind: 8 mph from West

Location: Koeln / Bonn

Current Time: Oct 20, 2014 at 7:21:53 AM

Latest Report: Oct 20, 2014 at 5:20 AM


Visibility: 10 mi

Pressure: 30.04 "Hg

Humidity: 77%

Dew point: 50 °F

Location of WiehlLocation

Historic Weather in Wiehl — Graph

°F

Wiehl temperature yesterday

Maximum temperature yesterday: 75 °F (at 1:50 PM)
Minimum temperature yesterday: 55 °F (at 7:20 AM)
Average temperature yesterday: 64 °F

Past Weeks' High & Low Weather Summary

 TemperatureHumidityPressure
High75 °F (Oct 19, 1:50 PM)100% (Oct 6, 1:20 AM)30.12 "Hg (Oct 6, 1:20 AM)
Low45 °F (Oct 12, 7:50 AM)46% (Oct 14, 2:50 PM)29.53 "Hg (Oct 7, 8:50 AM)
Average58 °F83%29.85 "Hg
* Reported Oct 5 5:20 AM — Oct 20 5:20 AM, Wiehl, Weather by CustomWeather, © 2014

Note: Actual official high and low records may vary slightly from our data, if they occured in-between our weather recording intervals... More about our weather records

Advertising

Wiehl weather history for previous 24 hours

 ConditionsComfort  
Time TempWeatherWind HumidityBarometerVisibility
5:20 AM
Oct 20
57 °FClear.8 mph77%30.04 "Hg10 mi
4:50 AM57 °FClear.10 mph77%30.04 "Hg10 mi
4:20 AM59 °FClear.12 mph77%30.04 "Hg10 mi
3:50 AM59 °FClear.13 mph77%30.07 "Hg10 mi
3:20 AM59 °FClear.13 mph77%30.07 "Hg10 mi
2:50 AM59 °FClear.13 mph82%30.07 "Hg10 mi
2:20 AM59 °FClear.12 mph82%30.07 "Hg10 mi
1:50 AM59 °FClear.14 mph77%30.07 "Hg10 mi
1:20 AM59 °FClear.14 mph82%30.07 "Hg10 mi
12:50 AM59 °FClear.13 mph82%30.07 "Hg10 mi
12:20 AM61 °FClear.12 mph77%30.07 "Hg10 mi
11:50 PM
Oct 19
61 °FClear.10 mph83%30.07 "Hg10 mi
11:20 PM61 °FClear.13 mph88%30.04 "Hg10 mi
10:50 PM63 °FScattered showers. Partly cloudy.13 mph88%30.04 "HgN/A
10:20 PM63 °FRain showers. Partly cloudy.15 mph88%30.04 "Hg6 mi
9:50 PM64 °FRain showers. Partly cloudy.10 mph88%30.01 "Hg4 mi
9:20 PM66 °FSprinkles. Partly cloudy.12 mph78%30.01 "HgN/A
8:50 PM66 °FScattered showers. Passing clouds.10 mph73%29.98 "HgN/A
8:20 PM66 °FPassing clouds.10 mph78%30.01 "HgN/A
7:50 PM66 °FPassing clouds.13 mph78%29.98 "HgN/A
7:20 PM68 °FPassing clouds.9 mph73%29.98 "HgN/A
6:50 PM68 °FPassing clouds.7 mph73%29.98 "HgN/A
6:20 PM70 °FPartly sunny.10 mph69%30.01 "HgN/A
5:50 PM70 °FScattered clouds.13 mph69%29.98 "HgN/A
5:20 PM72 °FPassing clouds.14 mph65%29.98 "HgN/A
4:50 PM73 °FPassing clouds.15 mph61%29.98 "HgN/A
4:20 PM73 °FPassing clouds.14 mph61%29.98 "HgN/A
3:50 PM75 °FPassing clouds.14 mph57%29.98 "HgN/A
3:20 PM75 °FPassing clouds.13 mph57%29.98 "HgN/A
2:50 PM75 °FPassing clouds.13 mph57%30.01 "HgN/A
2:20 PM75 °FPassing clouds.15 mph54%30.01 "HgN/A
1:50 PM75 °FPassing clouds.14 mph54%30.01 "HgN/A
1:20 PM73 °FSunny.12 mph61%30.04 "Hg10 mi
12:50 PM72 °FScattered clouds.10 mph69%30.04 "HgN/A
12:20 PM72 °FSunny.8 mph69%30.04 "Hg10 mi
11:50 AM68 °FSunny.8 mph73%30.04 "Hg10 mi
11:20 AM66 °FSunny.9 mph73%30.04 "Hg10 mi
10:50 AM64 °FSunny.10 mph78%30.04 "Hg10 mi
10:20 AM63 °FSunny.9 mph83%30.04 "Hg10 mi
9:50 AM61 °FSunny.8 mph83%30.04 "Hg10 mi
9:20 AM59 °FSunny.7 mph88%30.04 "Hg10 mi
8:50 AM57 °FClear.6 mph94%30.04 "Hg10 mi
8:20 AM55 °FClear.3 mph94%30.04 "Hg10 mi
7:50 AM55 °FClear.5 mph94%30.04 "Hg10 mi
7:20 AM55 °FClear.6 mph94%30.04 "Hg10 mi
Weather by CustomWeather, © 2014

See weather overviewHow to use our weather pages